Location: Highridge
(54.0333°N, 114.1333°W)
Time: 05:29:13
(UTC+00:00)

SO-50 - Pass Details

Date: 05 December 2023
Orbit: 608 x 660 km, 64.6° (Epoch: 02 March)

Event Time Altitude Azimuth Distance (km) Brightness Sun altitude
Exits shadow 11:25:12 20° 59° (ENE) 1,513 ? -35.7°
Drops below altitude 10° 11:26:40 10° 52° (NE) 2,049 ? -35.5°
Sets 11:29:00 0° 48° (NE) 2,955 ? -35.1°
